Terminal Aerodrome Forecast
Issued by NWS

Home | Current Version | Previous Version | Text Only | Print | Product List | Glossary On
Versions: 1 2 3 4 5 6 7 8 9 10 11 12 13 14 15 16 17 18 19
000
FTUS43 KBIS 310535
TAFDIK
TAF
KDIK 310535Z 3106/0106 36008KT P6SM VCTS SCT070CB BKN150
      TEMPO 3106/3109 VRB15G25KT -TSRA BKN070CB OVC150
     FM310900 33010KT P6SM VCTS BKN070CB OVC150
     FM311300 30017G23KT P6SM SCT250
     FM312100 27014G20KT P6SM SKC
     FM010200 22005KT P6SM SKC=

USA.gov is the U.S. government's official web portal to all federal, state and local government web resources and services.